Location: Newark
(48.1333°N, 17.1000°E)
Time: 20:51:42
(UTC+00:00)

N. Korean satellite - Pass Details

Date: 24 January 2020
Orbit: 456 x 505 km, 97.2° (Epoch: 22 February)

Event Time Altitude Azimuth Distance (km) Brightness Sun altitude
Rises 04:33:25 0° 15° (NNE) 2,527 10.3 -19.2°
Reaches altitude 10° 04:35:30 10° 20° (NNE) 1,652 9.4 -18.9°
Maximum altitude 04:39:00 59° 101° (E) 559 7.1 -18.3°
Drops below altitude 10° 04:42:33 10° 181° (S) 1,666 9.4 -17.7°
Sets 04:44:38 0° 186° (S) 2,550 10.3 -17.4°
